Location: Unspecified
(0.0000°N, 0.0000°E)
Time: 08:37:14
(UTC+00:00)

O/OREOS (USA 219) - Pass Details

Date: 15 December 2019
Orbit: 621 x 646 km, 72.0° (Epoch: 22 May)

Event Time Altitude Azimuth Distance (km) Brightness Sun altitude
Rises 19:50:34 0° 204° (SSW) 2,922 ? -26.3°
Reaches altitude 10° 19:52:53 10° 209° (SSW) 2,016 ? -26.8°
Maximum altitude 19:57:15 49° 284° (WNW) 817 ? -27.8°
Enters shadow 19:57:20 49° 288° (WNW) 818 ? -27.8°
